QPF
0.00 0.00 0.00 0.00 0.00 0.00 0.00 0.00 0.00 0.00 0.00 0.00 0.00 0.00 0.00 0.00 0.00 0.00 0.00 0.00 0.00 0.00 0.00 0.00 0.00 0.01 0.01 0.01 0.01 0.01 0.01 0.01 0.03 0.05 0.08 0.12 0.16 0.22 0.25 0.27 0.26 0.28 0.28 0.27
0.00 0.00 0.00 0.00 0.00 0.00 0.00 0.00 0.00 0.00 0.00 0.00 0.00 0.00 0.00 0.00 0.00 0.00 0.00 0.00 0.00 0.00 0.00 0.00 0.00 0.00 0.01 0.01 0.01 0.01 0.00 0.00 0.01 0.02 0.03 0.05 0.09 0.14 0.15 0.18 0.21 0.23 0.25 0.28
0.00 0.00 0.00 0.00 0.00 0.00 0.00 0.00 0.00 0.00 0.00 0.00 0.00 0.00 0.00 0.00 0.00 0.00 0.00 0.00 0.00 0.00 0.01 0.01 0.00 0.00 0.00 0.00 0.00 0.01 0.00 0.00 0.01 0.01 0.02 0.04 0.05 0.07 0.08 0.11 0.14 0.16 0.17 0.19
0.00 0.00 0.00 0.00 0.00 0.00 0.00 0.00 0.00 0.00 0.00 0.00 0.00 0.00 0.00 0.00 0.00 0.00 0.00 0.00 0.00 0.01 0.01 0.01 0.01 0.01 0.01 0.01 0.02 0.01 0.01 0.01 0.01 0.01 0.01 0.02 0.03 0.03 0.04 0.06 0.10 0.12 0.12 0.14
0.00 0.00 0.00 0.00 0.00 0.00 0.00 0.00 0.00 0.00 0.00 0.00 0.00 0.00 0.00 0.00 0.00 0.00 0.00 0.00 0.00 0.01 0.01 0.01 0.02 0.02 0.03 0.04 0.02 0.02 0.02 0.01 0.01 0.01 0.01 0.02 0.02 0.02 0.02 0.03 0.05 0.08 0.10 0.12
0.00 0.00 0.00 0.00 0.00 0.00 0.00 0.00 0.00 0.00 0.00 0.00 0.00 0.00 0.00 0.00 0.00 0.00 0.00 0.00 0.01 0.01 0.01 0.03 0.04 0.05 0.06 0.04 0.03 0.04 0.03 0.03 0.02 0.02 0.02 0.02 0.02 0.02 0.02 0.03 0.04 0.05 0.07 0.08
0.00 0.00 0.00 0.00 0.00 0.00 0.00 0.00 0.00 0.00 0.00 0.00 0.00 0.00 0.00 0.01 0.00 0.00 0.01 0.01 0.01 0.01 0.02 0.03 0.04 0.04 0.06 0.06 0.06 0.07 0.06 0.05 0.05 0.04 0.03 0.03 0.03 0.03 0.03 0.04 0.06 0.06 0.07 0.06
0.00 0.00 0.00 0.00 0.00 0.00 0.00 0.00 0.00 0.00 0.00 0.00 0.00 0.00 0.00 0.00 0.00 0.01 0.01 0.02 0.01 0.02 0.02 0.03 0.03 0.04 0.07 0.09 0.08 0.09 0.14 0.11 0.08 0.08 0.05 0.04 0.04 0.05 0.07 0.08 0.08 0.07 0.08 0.09
0.00 0.00 0.00 0.00 0.00 0.00 0.00 0.00 0.00 0.00 0.00 0.00 0.00 0.00 0.00 0.00 0.00 0.01 0.02 0.01 0.01 0.02 0.02 0.04 0.05 0.07 0.13 0.16 0.13 0.12 0.16 0.15 0.12 0.12 0.09 0.07 0.06 0.06 0.06 0.08 0.09 0.08 0.07 0.07
0.00 0.00 0.00 0.00 0.00 0.00 0.00 0.00 0.00 0.00 0.00 0.00 0.00 0.00 0.00 0.01 0.01 0.02 0.02 0.01 0.02 0.02 0.03 0.04 0.05 0.11 0.17 0.23 0.18 0.14 0.13 0.14 0.12 0.11 0.10 0.08 0.06 0.06 0.05 0.05 0.05 0.06 0.06 0.06
0.00 0.00 0.00 0.00 0.00 0.00 0.00 0.00 0.00 0.00 0.00 0.00 0.00 0.00 0.00 0.01 0.01 0.01 0.01 0.01 0.02 0.03 0.05 0.06 0.05 0.09 0.14 0.17 0.18 0.13 0.13 0.17 0.17 0.15 0.13 0.10 0.07 0.06 0.04 0.05 0.05 0.04 0.04 0.04
0.00 0.00 0.00 0.00 0.00 0.00 0.00 0.00 0.00 0.00 0.00 0.00 0.00 0.00 0.00 0.00 0.00 0.01 0.01 0.01 0.01 0.02 0.02 0.03 0.04 0.07 0.08 0.09 0.12 0.11 0.10 0.13 0.15 0.15 0.15 0.11 0.07 0.06 0.07 0.06 0.03 0.03 0.03 0.03
0.00 0.00 0.00 0.00 0.00 0.00 0.00 0.00 0.00 0.00 0.00 0.00 0.00 0.00 0.00 0.00 0.00 0.00 0.01 0.01 0.01 0.01 0.02 0.02 0.02 0.05 0.06 0.06 0.06 0.07 0.07 0.07 0.09 0.09 0.08 0.08 0.07 0.06 0.04 0.03 0.02 0.03 0.03 0.02
0.00 0.00 0.00 0.00 0.00 0.00 0.00 0.00 0.00 0.00 0.00 0.00 0.00 0.00 0.00 0.00 0.00 0.00 0.00 0.00 0.01 0.01 0.01 0.02 0.02 0.03 0.05 0.05 0.06 0.05 0.04 0.04 0.03 0.04 0.03 0.03 0.04 0.04 0.03 0.02 0.03 0.02 0.02 0.02
0.00 0.00 0.00 0.00 0.00 0.00 0.00 0.00 0.00 0.00 0.00 0.00 0.00 0.00 0.00 0.00 0.00 0.00 0.00 0.00 0.00 0.01 0.01 0.01 0.01 0.02 0.02 0.03 0.03 0.04 0.04 0.02 0.02 0.02 0.01 0.01 0.01 0.01 0.01 0.00 0.01 0.01 0.02 0.02
0.00 0.00 0.00 0.00 0.00 0.00 0.00 0.00 0.00 0.00 0.00 0.00 0.00 0.00 0.00 0.00 0.00 0.00 0.00 0.00 0.00 0.00 0.00 0.00 0.00 0.01 0.01 0.01 0.01 0.01 0.01 0.00 0.00 0.00 0.00 0.00 0.00 0.00 0.00 0.00 0.00 0.00 0.01 0.01
0.00 0.00 0.00 0.00 0.00 0.00 0.00 0.00 0.00 0.00 0.00 0.00 0.00 0.00 0.00 0.00 0.00 0.00 0.00 0.00 0.00 0.00 0.00 0.00 0.00 0.00 0.00 0.00 0.00 0.00 0.00 0.00 0.00 0.00 0.00 0.00 0.00 0.00 0.00 0.00 0.00 0.00 0.00 0.00
0.00 0.00 0.00 0.00 0.00 0.00 0.00 0.00 0.00 0.00 0.00 0.00 0.00 0.00 0.00 0.00 0.00 0.00 0.00 0.00 0.00 0.00 0.00 0.00 0.00 0.00 0.00 0.00 0.00 0.00 0.00 0.00 0.00 0.00 0.00 0.00 0.00 0.00 0.00 0.00 0.00 0.00 0.00 0.00
0.00 0.00 0.00 0.00 0.00 0.00 0.00 0.00 0.00 0.00 0.00 0.00 0.00 0.00 0.00 0.00 0.00 0.00 0.00 0.00 0.00 0.00 0.00 0.00 0.00 0.00 0.00 0.00 0.00 0.00 0.00 0.00 0.00 0.00 0.00 0.00 0.00 0.00 0.00 0.00 0.00 0.00 0.00 0.00
0.00 0.00 0.00 0.00 0.00 0.00 0.00 0.00 0.00 0.00 0.00 0.00 0.00 0.00 0.00 0.00 0.00 0.00 0.00 0.00 0.00 0.00 0.00 0.00 0.00 0.00 0.00 0.00 0.00 0.00 0.00 0.00 0.00 0.00 0.00 0.00 0.00 0.00 0.00 0.00 0.00 0.00 0.00 0.00
0.00 0.00 0.00 0.00 0.00 0.00 0.00 0.00 0.00 0.00 0.00 0.00 0.00 0.00 0.00 0.00 0.00 0.00 0.00 0.00 0.00 0.00 0.00 0.00 0.00 0.00 0.00 0.00 0.00 0.00 0.00 0.00 0.00 0.00 0.00 0.00 0.00 0.00 0.00 0.00 0.00 0.00 0.00 0.00
0.00 0.00 0.00 0.00 0.00 0.00 0.00 0.00 0.00 0.00 0.00 0.00 0.00 0.00 0.00 0.00 0.00 0.00 0.00 0.00 0.00 0.00 0.00 0.00 0.00 0.00 0.00 0.00 0.00 0.00 0.00 0.00 0.00 0.00 0.00 0.00 0.00 0.00 0.00 0.00 0.00 0.00 0.00 0.00
0.00 0.00 0.00 0.00 0.00 0.00 0.00 0.00 0.00 0.00 0.00 0.00 0.00 0.00 0.00 0.00 0.00 0.00 0.00 0.00 0.00 0.00 0.00 0.00 0.00 0.00 0.00 0.00 0.00 0.00 0.00 0.00 0.00 0.00 0.00 0.00 0.00 0.00 0.00 0.00 0.00 0.00 0.00 0.00
0.00 0.00 0.00 0.00 0.00 0.00 0.00 0.00 0.00 0.00 0.00 0.00 0.00 0.00 0.00 0.00 0.00 0.00 0.00 0.00 0.00 0.00 0.00 0.00 0.00 0.00 0.00 0.00 0.00 0.00 0.00 0.00 0.00 0.00 0.00 0.00 0.00 0.00 0.00 0.00 0.00 0.00 0.00 0.00
0.00 0.00 0.00 0.00 0.00 0.00 0.00 0.00 0.00 0.00 0.00 0.00 0.00 0.00 0.00 0.00 0.00 0.00 0.00 0.00 0.00 0.00 0.00 0.00 0.00 0.00 0.00 0.00 0.00 0.00 0.00 0.00 0.00 0.00 0.00 0.00 0.00 0.00 0.00 0.00 0.00 0.00 0.00 0.00
0.00 0.00 0.00 0.00 0.00 0.00 0.00 0.00 0.00 0.00 0.00 0.00 0.00 0.00 0.00 0.00 0.00 0.00 0.00 0.00 0.00 0.00 0.00 0.00 0.00 0.00 0.00 0.00 0.00 0.00 0.00 0.00 0.00 0.00 0.00 0.00 0.00 0.00 0.00 0.00 0.00 0.00 0.00 0.00
MSLP
1015.82 1016.69 1017.43 1018.01 1018.47 1018.86 1019.24 1019.68 1020.22 1020.87 1021.61 1022.37 1023.06 1023.61 1023.93 1023.98 1023.77 1023.33 1022.72 1022.02 1021.31 1020.65 1020.08 1019.60 1019.19 1018.82 1018.43 1018.01 1017.53 1017.00 1016.44 1015.89 1015.39 1014.98 1014.67 1014.47 1014.35 1014.30 1014.28 1014.27 1014.24 1014.20 1014.16 1014.15
1017.25 1018.07 1018.73 1019.21 1019.55 1019.81 1020.06 1020.36 1020.77 1021.30 1021.92 1022.57 1023.17 1023.64 1023.91 1023.93 1023.69 1023.24 1022.63 1021.94 1021.23 1020.57 1019.98 1019.47 1019.02 1018.59 1018.16 1017.70 1017.19 1016.65 1016.11 1015.59 1015.14 1014.78 1014.51 1014.33 1014.21 1014.13 1014.06 1013.97 1013.86 1013.74 1013.64 1013.59
1018.54 1019.29 1019.86 1020.24 1020.47 1020.62 1020.75 1020.93 1021.22 1021.63 1022.14 1022.69 1023.20 1023.60 1023.82 1023.81 1023.58 1023.14 1022.56 1021.90 1021.21 1020.55 1019.96 1019.42 1018.93 1018.46 1017.97 1017.47 1016.94 1016.40 1015.87 1015.38 1014.97 1014.64 1014.39 1014.21 1014.08 1013.95 1013.80 1013.63 1013.43 1013.24 1013.07 1012.98
1019.57 1020.23 1020.70 1021.00 1021.15 1021.21 1021.26 1021.36 1021.57 1021.88 1022.30 1022.75 1023.19 1023.53 1023.71 1023.69 1023.46 1023.06 1022.52 1021.90 1021.25 1020.61 1020.02 1019.46 1018.94 1018.43 1017.90 1017.36 1016.81 1016.26 1015.74 1015.28 1014.88 1014.57 1014.33 1014.14 1013.97 1013.78 1013.57 1013.31 1013.04 1012.77 1012.55 1012.42
1020.30 1020.86 1021.24 1021.47 1021.56 1021.59 1021.60 1021.66 1021.82 1022.08 1022.43 1022.82 1023.18 1023.47 1023.61 1023.58 1023.37 1022.99 1022.50 1021.93 1021.33 1020.73 1020.15 1019.59 1019.05 1018.50 1017.95 1017.38 1016.81 1016.25 1015.74 1015.28 1014.89 1014.59 1014.34 1014.12 1013.91 1013.67 1013.40 1013.08 1012.74 1012.41 1012.15 1011.99
1020.76 1021.21 1021.52 1021.70 1021.77 1021.79 1021.81 1021.88 1022.03 1022.27 1022.58 1022.92 1023.23 1023.46 1023.57 1023.52 1023.32 1022.97 1022.52 1022.00 1021.44 1020.88 1020.32 1019.77 1019.23 1018.67 1018.10 1017.51 1016.93 1016.36 1015.84 1015.38 1014.99 1014.67 1014.41 1014.17 1013.92 1013.65 1013.33 1012.97 1012.59 1012.23 1011.94 1011.75
1021.02 1021.37 1021.62 1021.77 1021.85 1021.91 1021.98 1022.09 1022.27 1022.51 1022.81 1023.11 1023.37 1023.55 1023.62 1023.54 1023.33 1023.00 1022.57 1022.09 1021.57 1021.04 1020.52 1019.99 1019.45 1018.90 1018.32 1017.73 1017.14 1016.56 1016.03 1015.56 1015.16 1014.83 1014.55 1014.28 1014.02 1013.72 1013.38 1013.01 1012.63 1012.26 1011.96 1011.75
1021.16 1021.43 1021.64 1021.79 1021.91 1022.03 1022.16 1022.34 1022.57 1022.84 1023.13 1023.40 1023.62 1023.75 1023.76 1023.65 1023.41 1023.07 1022.66 1022.20 1021.71 1021.22 1020.72 1020.22 1019.70 1019.16 1018.59 1018.01 1017.41 1016.84 1016.30 1015.82 1015.40 1015.05 1014.75 1014.47 1014.19 1013.90 1013.57 1013.21 1012.84 1012.50 1012.20 1011.99
1021.26 1021.47 1021.67 1021.84 1022.01 1022.20 1022.41 1022.66 1022.94 1023.24 1023.53 1023.77 1023.95 1024.02 1023.98 1023.81 1023.54 1023.18 1022.76 1022.31 1021.84 1021.37 1020.91 1020.43 1019.95 1019.43 1018.89 1018.33 1017.75 1017.18 1016.64 1016.15 1015.71 1015.35 1015.03 1014.74 1014.46 1014.17 1013.87 1013.54 1013.21 1012.90 1012.62 1012.42
1021.36 1021.55 1021.75 1021.95 1022.18 1022.44 1022.72 1023.03 1023.36 1023.68 1023.96 1024.18 1024.30 1024.32 1024.22 1023.99 1023.68 1023.29 1022.85 1022.40 1021.94 1021.49 1021.06 1020.62 1020.17 1019.70 1019.19 1018.66 1018.11 1017.56 1017.03 1016.53 1016.09 1015.71 1015.38 1015.08 1014.81 1014.54 1014.26 1013.97 1013.69 1013.41 1013.17 1012.97
1021.45 1021.65 1021.87 1022.12 1022.40 1022.71 1023.05 1023.40 1023.75 1024.07 1024.33 1024.51 1024.59 1024.55 1024.40 1024.13 1023.77 1023.35 1022.90 1022.44 1021.99 1021.56 1021.15 1020.75 1020.35 1019.93 1019.47 1018.99 1018.49 1017.97 1017.46 1016.98 1016.54 1016.14 1015.80 1015.50 1015.22 1014.97 1014.71 1014.47 1014.22 1013.98 1013.77 1013.59
1021.53 1021.75 1022.00 1022.29 1022.60 1022.95 1023.31 1023.68 1024.02 1024.32 1024.56 1024.70 1024.73 1024.65 1024.46 1024.15 1023.77 1023.33 1022.87 1022.41 1021.97 1021.56 1021.18 1020.82 1020.46 1020.10 1019.71 1019.29 1018.84 1018.38 1017.91 1017.45 1017.02 1016.63 1016.28 1015.97 1015.69 1015.44 1015.20 1014.98 1014.76 1014.55 1014.36 1014.20
1021.55 1021.82 1022.10 1022.41 1022.75 1023.09 1023.44 1023.79 1024.10 1024.36 1024.55 1024.66 1024.66 1024.55 1024.34 1024.02 1023.64 1023.21 1022.75 1022.30 1021.88 1021.49 1021.13 1020.81 1020.50 1020.19 1019.87 1019.52 1019.15 1018.75 1018.34 1017.92 1017.52 1017.14 1016.79 1016.48 1016.19 1015.94 1015.71 1015.49 1015.28 1015.09 1014.92 1014.77
1021.54 1021.84 1022.15 1022.46 1022.78 1023.10 1023.40 1023.69 1023.94 1024.15 1024.29 1024.36 1024.34 1024.23 1024.02 1023.73 1023.37 1022.97 1022.55 1022.12 1021.72 1021.35 1021.02 1020.72 1020.45 1020.20 1019.94 1019.67 1019.37 1019.05 1018.71 1018.36 1018.00 1017.65 1017.31 1017.00 1016.71 1016.45 1016.21 1015.98 1015.78 1015.59 1015.43 1015.27
1021.50 1021.82 1022.13 1022.43 1022.70 1022.95 1023.18 1023.38 1023.55 1023.69 1023.78 1023.82 1023.79 1023.70 1023.53 1023.29 1022.99 1022.65 1022.27 1021.89 1021.51 1021.16 1020.85 1020.58 1020.34 1020.13 1019.93 1019.72 1019.51 1019.27 1019.01 1018.73 1018.43 1018.12 1017.82 1017.52 1017.23 1016.96 1016.70 1016.47 1016.26 1016.06 1015.89 1015.73
1021.47 1021.79 1022.08 1022.33 1022.53 1022.69 1022.81 1022.91 1022.98 1023.03 1023.07 1023.08 1023.07 1023.02 1022.91 1022.76 1022.54 1022.28 1021.97 1021.64 1021.30 1020.98 1020.68 1020.42 1020.19 1020.00 1019.84 1019.70 1019.55 1019.40 1019.22 1019.02 1018.79 1018.55 1018.28 1018.01 1017.73 1017.46 1017.20 1016.95 1016.73 1016.52 1016.33 1016.17
1021.48 1021.79 1022.03 1022.20 1022.30 1022.34 1022.34 1022.31 1022.27 1022.24 1022.23 1022.23 1022.24 1022.25 1022.23 1022.17 1022.07 1021.90 1021.68 1021.41 1021.12 1020.82 1020.53 1020.27 1020.05 1019.87 1019.73 1019.63 1019.54 1019.46 1019.36 1019.24 1019.09 1018.91 1018.70 1018.46 1018.21 1017.95 1017.69 1017.44 1017.20 1016.98 1016.78 1016.60
1021.54 1021.80 1021.97 1022.04 1022.03 1021.94 1021.80 1021.65 1021.50 1021.40 1021.34 1021.34 1021.38 1021.46 1021.54 1021.59 1021.60 1021.55 1021.42 1021.23 1020.99 1020.71 1020.43 1020.17 1019.94 1019.76 1019.63 1019.55 1019.50 1019.47 1019.45 1019.40 1019.33 1019.22 1019.07 1018.89 1018.67 1018.44 1018.19 1017.94 1017.70 1017.47 1017.26 1017.06
1021.60 1021.78 1021.86 1021.83 1021.69 1021.48 1021.22 1020.95 1020.72 1020.55 1020.46 1020.46 1020.55 1020.69 1020.87 1021.04 1021.16 1021.22 1021.20 1021.09 1020.91 1020.67 1020.40 1020.13 1019.90 1019.71 1019.58 1019.51 1019.49 1019.50 1019.52 1019.54 1019.53 1019.49 1019.40 1019.27 1019.11 1018.91 1018.68 1018.45 1018.21 1017.98 1017.75 1017.54
1021.56 1021.67 1021.65 1021.51 1021.27 1020.95 1020.59 1020.23 1019.93 1019.71 1019.61 1019.63 1019.75 1019.97 1020.24 1020.51 1020.75 1020.92 1021.00 1020.97 1020.85 1020.65 1020.41 1020.16 1019.92 1019.73 1019.60 1019.54 1019.53 1019.56 1019.62 1019.68 1019.73 1019.74 1019.71 1019.63 1019.51 1019.35 1019.15 1018.94 1018.72 1018.49 1018.27 1018.05
1021.34 1021.35 1021.25 1021.02 1020.69 1020.30 1019.87 1019.47 1019.13 1018.90 1018.81 1018.85 1019.02 1019.30 1019.65 1020.01 1020.34 1020.61 1020.77 1020.83 1020.78 1020.64 1020.44 1020.21 1019.99 1019.81 1019.69 1019.62 1019.62 1019.67 1019.75 1019.84 1019.92 1019.97 1019.98 1019.95 1019.86 1019.74 1019.58 1019.39 1019.19 1018.99 1018.77 1018.55
1020.85 1020.78 1020.60 1020.31 1019.94 1019.51 1019.07 1018.66 1018.33 1018.12 1018.05 1018.13 1018.35 1018.68 1019.09 1019.52 1019.92 1020.26 1020.50 1020.63 1020.65 1020.58 1020.43 1020.25 1020.07 1019.91 1019.80 1019.75 1019.76 1019.82 1019.91 1020.01 1020.11 1020.18 1020.21 1020.20 1020.15 1020.06 1019.93 1019.78 1019.61 1019.43 1019.23 1019.03
1020.07 1019.92 1019.68 1019.37 1018.99 1018.57 1018.17 1017.81 1017.53 1017.38 1017.36 1017.49 1017.75 1018.12 1018.56 1019.03 1019.47 1019.86 1020.16 1020.35 1020.44 1020.43 1020.35 1020.23 1020.10 1019.99 1019.91 1019.88 1019.91 1019.97 1020.07 1020.17 1020.26 1020.34 1020.38 1020.38 1020.35 1020.28 1020.18 1020.06 1019.92 1019.77 1019.62 1019.45
1019.01 1018.81 1018.54 1018.23 1017.88 1017.53 1017.21 1016.94 1016.76 1016.69 1016.75 1016.93 1017.24 1017.63 1018.09 1018.56 1019.02 1019.42 1019.75 1019.98 1020.12 1020.17 1020.16 1020.11 1020.04 1019.99 1019.96 1019.96 1020.00 1020.08 1020.17 1020.26 1020.35 1020.41 1020.45 1020.45 1020.43 1020.37 1020.30 1020.21 1020.11 1020.01 1019.90 1019.79
1017.77 1017.53 1017.26 1016.98 1016.70 1016.45 1016.24 1016.10 1016.04 1016.09 1016.23 1016.48 1016.82 1017.23 1017.68 1018.14 1018.58 1018.97 1019.30 1019.54 1019.71 1019.82 1019.86 1019.87 1019.88 1019.88 1019.90 1019.94 1020.01 1020.09 1020.18 1020.26 1020.33 1020.38 1020.40 1020.40 1020.37 1020.33 1020.28 1020.22 1020.17 1020.12 1020.06 1020.00
1016.48 1016.21 1015.95 1015.73 1015.54 1015.40 1015.33 1015.33 1015.41 1015.57 1015.82 1016.13 1016.51 1016.92 1017.35 1017.78 1018.18 1018.54 1018.84 1019.07 1019.26 1019.38 1019.47 1019.54 1019.60 1019.66 1019.73 1019.80 1019.89 1019.98 1020.07 1020.14 1020.19 1020.22 1020.22 1020.21 1020.18 1020.15 1020.12 1020.10 1020.08 1020.08 1020.09 1020.09
Thickness
5776 5767 5750 5747 5750 5749 5745 5737 5725 5712 5709 5703 5692 5683 5681 5684 5684 5683 5684 5686 5687 5688 5693 5695 5696 5699 5701 5704 5707 5710 5713 5716 5719 5722 5725 5729 5733 5736 5739 5741 5742 5743 5743 5743
5762 5743 5741 5744 5743 5741 5735 5726 5714 5702 5701 5695 5683 5676 5677 5676 5674 5673 5674 5675 5677 5677 5681 5683 5685 5688 5689 5691 5695 5699 5702 5706 5709 5711 5715 5719 5724 5728 5732 5735 5737 5738 5740 5740
5746 5733 5738 5736 5733 5729 5722 5717 5708 5698 5688 5688 5680 5670 5670 5670 5671 5668 5667 5666 5666 5666 5667 5669 5671 5674 5677 5680 5683 5687 5690 5695 5699 5702 5706 5710 5715 5719 5723 5726 5730 5732 5735 5736
5734 5730 5730 5727 5718 5717 5709 5704 5700 5693 5688 5680 5674 5669 5661 5661 5660 5658 5657 5657 5657 5657 5658 5658 5659 5662 5665 5669 5673 5676 5679 5683 5687 5691 5694 5698 5702 5706 5712 5717 5722 5726 5729 5731
5723 5722 5721 5715 5707 5706 5702 5699 5696 5691 5686 5677 5671 5668 5657 5657 5648 5647 5648 5648 5648 5648 5648 5648 5650 5652 5656 5659 5661 5665 5668 5671 5674 5679 5683 5687 5692 5698 5704 5709 5713 5717 5721 5724
5720 5719 5715 5709 5705 5701 5699 5694 5690 5687 5684 5668 5658 5656 5644 5642 5637 5638 5641 5642 5641 5641 5641 5641 5642 5645 5647 5650 5652 5655 5657 5660 5663 5667 5673 5677 5682 5688 5693 5699 5704 5708 5713 5716
5714 5711 5710 5708 5704 5701 5698 5692 5685 5678 5671 5660 5651 5647 5635 5636 5636 5635 5634 5635 5636 5636 5635 5634 5635 5637 5639 5641 5644 5647 5649 5651 5654 5659 5663 5668 5673 5678 5684 5689 5694 5699 5704 5707
5713 5703 5699 5698 5693 5690 5688 5688 5679 5674 5669 5656 5647 5641 5637 5637 5637 5636 5634 5633 5633 5632 5631 5630 5630 5632 5633 5635 5638 5640 5642 5644 5647 5651 5655 5660 5665 5670 5675 5680 5686 5690 5695 5699
5717 5699 5695 5692 5692 5690 5687 5682 5677 5674 5664 5655 5647 5640 5639 5638 5635 5633 5632 5631 5628 5628 5628 5628 5628 5629 5630 5632 5634 5635 5638 5640 5642 5646 5650 5654 5658 5663 5667 5672 5677 5681 5686 5690
5722 5701 5693 5691 5693 5684 5683 5676 5676 5669 5659 5653 5642 5636 5632 5631 5629 5629 5629 5628 5627 5627 5628 5628 5628 5627 5628 5630 5632 5633 5635 5636 5638 5641 5644 5648 5652 5656 5660 5664 5667 5672 5677 5681
5720 5709 5692 5691 5683 5677 5678 5673 5668 5664 5658 5653 5642 5635 5638 5632 5630 5628 5629 5629 5628 5628 5628 5629 5629 5629 5629 5630 5631 5633 5633 5634 5635 5637 5640 5643 5647 5651 5655 5657 5660 5663 5667 5671
5714 5714 5698 5686 5681 5677 5674 5668 5667 5663 5654 5650 5645 5637 5643 5638 5635 5632 5631 5632 5632 5631 5632 5631 5631 5630 5630 5631 5632 5632 5633 5633 5634 5635 5638 5640 5642 5645 5648 5650 5652 5656 5659 5663
5714 5710 5697 5687 5680 5677 5673 5665 5662 5662 5659 5652 5645 5639 5647 5643 5640 5638 5635 5635 5635 5635 5635 5635 5634 5633 5633 5632 5633 5633 5633 5633 5634 5635 5636 5638 5639 5641 5642 5644 5646 5650 5652 5655
5716 5710 5703 5695 5689 5683 5674 5665 5661 5662 5663 5654 5649 5645 5647 5645 5642 5641 5640 5639 5639 5639 5638 5637 5637 5637 5636 5636 5635 5635 5635 5634 5635 5635 5635 5636 5637 5637 5638 5639 5641 5643 5645 5647
5720 5709 5700 5693 5688 5684 5678 5671 5665 5664 5664 5660 5655 5650 5651 5651 5647 5646 5645 5643 5643 5642 5642 5641 5641 5640 5640 5639 5639 5638 5637 5637 5636 5636 5635 5635 5636 5636 5637 5638 5638 5639 5640 5641
5720 5710 5703 5693 5688 5685 5681 5677 5671 5667 5665 5662 5658 5656 5663 5661 5656 5653 5652 5649 5647 5647 5646 5646 5646 5645 5644 5644 5643 5641 5640 5639 5639 5637 5636 5635 5636 5636 5636 5635 5635 5635 5634 5635
5721 5715 5706 5702 5692 5688 5690 5695 5683 5679 5677 5672 5666 5670 5669 5663 5660 5659 5657 5655 5653 5652 5652 5652 5651 5650 5649 5648 5647 5644 5642 5642 5641 5639 5637 5636 5636 5635 5634 5633 5632 5631 5630 5629
5722 5716 5710 5705 5696 5691 5706 5706 5700 5690 5687 5685 5681 5678 5674 5670 5669 5667 5665 5662 5661 5659 5658 5657 5657 5656 5655 5654 5651 5649 5646 5645 5643 5640 5638 5636 5636 5634 5633 5631 5629 5628 5627 5625
5725 5716 5710 5707 5705 5708 5709 5706 5701 5693 5694 5698 5690 5685 5681 5678 5674 5674 5673 5670 5667 5665 5664 5663 5662 5661 5660 5658 5656 5654 5651 5648 5644 5641 5639 5637 5636 5633 5631 5629 5627 5625 5623 5621
5717 5719 5714 5706 5703 5708 5718 5718 5714 5704 5699 5712 5703 5694 5688 5681 5676 5678 5679 5675 5673 5670 5669 5667 5667 5666 5664 5661 5659 5657 5654 5650 5645 5642 5640 5638 5635 5632 5629 5627 5625 5623 5621 5619
5716 5714 5712 5710 5709 5723 5728 5720 5712 5699 5715 5721 5713 5705 5696 5690 5691 5688 5683 5680 5677 5674 5672 5671 5670 5669 5666 5665 5663 5660 5657 5651 5647 5643 5640 5638 5635 5632 5628 5626 5624 5623 5620 5618
5728 5721 5717 5716 5712 5721 5728 5720 5717 5728 5731 5726 5719 5713 5705 5700 5695 5690 5686 5683 5681 5679 5676 5674 5673 5671 5669 5667 5665 5662 5657 5653 5649 5645 5641 5638 5635 5633 5630 5626 5624 5622 5620 5618
5733 5736 5735 5732 5738 5743 5738 5739 5741 5740 5734 5730 5724 5718 5711 5703 5697 5693 5690 5688 5685 5683 5680 5678 5676 5674 5673 5670 5667 5664 5659 5655 5651 5647 5643 5640 5637 5633 5630 5627 5625 5622 5619 5617
5741 5736 5733 5736 5747 5746 5741 5743 5741 5739 5737 5734 5730 5722 5715 5708 5703 5698 5694 5691 5688 5686 5684 5681 5679 5677 5675 5673 5670 5667 5663 5658 5655 5650 5646 5643 5640 5637 5633 5628 5626 5623 5620 5617
5747 5735 5736 5740 5752 5747 5744 5745 5744 5740 5738 5735 5731 5726 5719 5713 5708 5703 5699 5695 5693 5689 5687 5685 5683 5680 5678 5676 5673 5670 5666 5662 5659 5655 5650 5647 5642 5639 5635 5632 5626 5623 5618 5614
5752 5746 5744 5750 5763 5759 5759 5758 5751 5743 5738 5735 5730 5725 5722 5717 5712 5707 5703 5700 5696 5693 5691 5688 5685 5682 5681 5679 5676 5673 5669 5666 5664 5660 5656 5651 5647 5643 5640 5637 5633 5623 5620 5615